RH
9 9 7 7 7 9 10 11 11 13 14 14 14 12 10 10 11 8 9 10 10 18 25 26 25 23 25 28 31 37 41 41 40 42 47 47 45 46 48 50 48 43 41 41 42 41 42 43 44 45 46 47 48 50 50 48 45 40 37 35 35 35 33 31 29 31 33 33 33 32 32 32 31 29 27 26 27 31 38 40 36 34 37 34 28 27 23 24 27 25 28 30 30 31 31 33 35
9 8 7 8 9 10 11 11 13 15 14 12 11 10 9 10 11 10 12 12 13 23 27 28 26 26 28 28 33 37 38 45 45 44 47 47 47 50 52 51 47 44 42 43 44 44 45 45 45 45 44 45 46 49 50 48 45 40 37 36 37 37 35 33 31 31 35 37 35 34 33 33 33 35 32 28 28 32 37 39 38 37 35 33 29 27 25 23 24 26 27 28 29 30 32 35 36
8 8 8 10 11 10 12 12 13 16 14 10 9 9 9 9 11 12 14 13 17 26 27 30 31 30 34 35 37 37 40 48 48 47 49 47 48 50 51 49 45 44 42 42 44 45 47 48 46 46 45 44 46 48 48 47 44 40 38 38 39 38 36 33 32 31 33 37 38 39 39 36 35 38 35 30 31 33 37 37 37 38 37 35 32 28 27 25 24 25 26 28 29 31 33 34 35
7 8 10 11 11 12 14 15 16 16 14 11 8 9 11 11 12 13 15 14 18 26 28 32 35 34 36 40 40 40 44 47 47 49 49 47 47 47 46 44 40 40 38 38 41 43 47 49 48 46 45 44 47 48 47 47 43 40 39 40 40 39 37 35 35 35 35 36 38 41 43 40 38 38 35 32 33 36 37 36 37 40 39 36 34 31 28 27 26 26 28 29 31 32 34 35 36
8 10 12 12 11 12 15 16 18 15 11 11 9 11 14 14 15 15 16 17 21 26 30 35 38 36 36 39 40 43 45 44 47 49 49 47 45 43 42 38 36 36 35 38 40 43 46 47 47 47 46 45 48 50 49 47 42 40 41 42 43 41 38 36 38 38 38 38 37 39 41 42 42 41 39 36 36 39 40 37 37 40 41 39 37 35 32 29 28 28 30 32 34 36 36 37 38
9 11 12 12 12 12 15 16 16 14 10 10 11 13 16 17 19 19 16 18 26 30 33 37 39 38 40 41 40 43 44 45 49 50 49 49 45 42 39 36 35 35 36 38 41 43 44 46 49 50 49 49 51 52 50 47 42 43 46 46 45 43 40 40 42 43 42 42 40 39 39 41 42 42 41 38 38 40 41 38 36 38 40 40 40 39 36 31 28 29 32 36 37 38 39 39 40
10 12 13 13 13 13 17 17 15 14 11 11 13 14 16 19 21 21 18 18 27 34 37 40 40 41 44 44 43 44 44 46 48 49 49 49 46 42 38 38 37 36 38 39 41 42 44 50 55 54 53 53 54 53 50 46 46 50 51 49 47 45 43 43 46 47 46 45 44 41 40 39 40 41 39 37 38 40 41 40 37 36 37 38 39 40 39 33 30 30 33 38 39 40 41 41 41
11 12 11 13 14 13 17 17 14 14 12 12 14 15 18 21 22 23 21 19 22 31 40 44 42 44 47 44 47 49 47 46 45 47 49 49 48 42 40 39 38 39 40 41 40 41 46 56 61 59 58 58 57 52 49 49 53 55 53 51 50 48 46 46 47 49 50 48 46 43 41 38 39 39 38 37 39 42 44 44 42 38 38 38 39 41 41 36 32 31 34 39 41 42 42 42 42
12 11 10 12 13 13 14 14 12 11 11 11 14 16 17 20 22 23 23 20 21 29 40 46 41 42 47 45 48 50 47 46 45 47 48 48 47 42 40 40 40 41 42 42 42 45 53 61 64 63 61 61 58 52 52 55 58 57 54 54 52 49 48 48 47 49 51 50 47 44 41 37 38 40 39 40 43 47 48 49 47 43 42 43 42 43 43 39 34 32 35 39 42 43 42 42 42
11 11 10 13 14 14 14 12 11 11 10 10 13 15 15 18 19 22 22 19 22 33 40 43 41 40 45 46 46 46 45 45 45 47 46 45 43 41 40 39 41 42 44 45 46 51 58 63 65 65 65 63 59 55 56 59 61 59 55 53 49 47 49 48 47 47 48 49 48 46 43 40 41 44 44 45 48 52 52 51 51 48 45 46 46 44 45 42 37 34 35 40 42 43 42 42 43
11 10 10 14 15 15 14 12 11 11 10 11 14 14 14 15 16 19 20 17 23 37 41 38 41 42 43 43 45 44 43 43 44 44 43 41 41 41 41 41 43 45 49 50 50 55 61 64 66 67 65 63 61 59 60 63 62 57 51 48 46 47 49 48 46 44 44 45 46 47 46 45 47 49 51 52 53 55 55 52 52 52 47 45 47 47 48 46 39 34 36 41 43 42 42 43 43
11 12 12 16 17 14 14 13 12 12 12 13 15 14 14 13 14 16 15 16 25 35 36 34 38 40 40 42 44 45 44 44 43 42 41 39 41 43 43 45 47 47 52 55 54 57 61 65 67 66 66 66 64 63 63 62 57 50 47 47 45 46 48 49 47 44 43 44 46 48 49 50 53 53 54 57 58 57 56 55 56 56 50 46 50 50 50 48 41 36 38 43 44 44 45 44 44
12 13 13 16 17 15 14 13 14 15 14 14 14 13 13 11 13 14 13 18 26 32 31 30 35 36 38 40 42 45 46 45 43 42 42 41 43 46 46 47 47 47 52 55 55 57 61 65 67 66 66 65 63 60 58 54 49 47 48 48 46 48 49 50 47 44 44 46 48 51 53 56 58 56 56 59 60 58 55 57 59 60 55 50 53 53 49 46 44 40 39 42 44 46 47 46 45
12 13 13 14 15 14 12 13 14 15 14 14 14 13 13 11 13 12 14 25 29 30 30 31 32 34 37 39 41 45 46 45 43 42 42 42 45 48 47 47 46 47 52 54 54 57 61 64 64 62 61 59 56 54 52 50 48 49 52 51 52 52 51 50 47 44 46 49 51 55 58 61 60 59 59 60 60 57 54 58 61 61 58 53 56 56 50 46 44 40 38 39 43 47 48 47 47
11 12 14 14 14 13 12 14 15 14 15 15 15 14 13 13 18 18 19 28 33 31 31 33 32 32 38 39 42 45 44 43 42 41 41 42 44 45 46 46 46 49 53 54 55 57 59 60 60 59 57 54 51 49 49 47 47 48 50 52 55 54 52 51 48 48 51 52 54 56 58 59 59 57 59 57 56 54 52 56 58 56 56 58 59 55 51 49 45 42 38 37 39 44 47 46 47
12 14 15 14 14 13 13 15 15 15 16 15 15 14 14 14 20 27 25 27 34 33 31 33 31 30 37 41 42 44 43 43 43 41 40 41 41 41 43 46 48 52 55 53 53 55 55 56 56 55 53 51 47 45 45 44 44 46 50 55 56 55 55 54 51 52 53 55 55 56 55 55 56 57 56 53 52 53 52 54 54 53 58 61 60 53 50 50 47 45 42 37 35 39 45 46 46
13 14 16 14 13 13 14 16 16 17 16 15 17 15 17 18 22 32 32 30 34 34 31 32 32 30 36 42 43 43 43 43 42 40 38 38 38 40 43 47 51 54 54 51 51 52 52 53 52 50 49 47 44 43 43 42 44 49 54 57 57 58 59 58 54 53 54 55 56 55 54 53 56 56 54 52 52 54 56 57 57 58 61 61 57 51 48 48 47 47 44 40 34 35 43 44 44
13 15 16 14 13 12 14 17 16 17 17 17 18 16 19 21 24 32 34 35 35 35 36 35 35 36 40 43 43 43 43 42 41 39 36 36 38 41 46 51 53 54 52 50 51 50 49 49 47 47 45 42 40 40 40 42 47 52 55 57 59 61 63 61 57 55 55 55 55 54 53 54 55 55 55 55 56 57 58 59 60 61 61 58 54 50 47 45 45 46 45 42 36 34 41 44 44
14 14 14 13 13 12 13 18 17 18 20 20 19 18 19 17 22 31 36 39 39 40 44 42 40 42 44 44 44 45 44 42 43 41 37 37 39 43 49 52 54 55 52 52 54 50 46 46 46 44 41 37 36 38 40 44 51 56 59 61 63 64 63 62 58 57 56 55 55 54 54 55 56 57 58 58 57 56 57 58 60 61 58 54 51 48 46 45 46 47 46 45 41 37 41 44 43
14 14 13 12 12 11 13 18 19 20 22 22 21 20 20 16 20 34 42 44 45 46 47 46 47 46 45 44 45 47 46 44 46 45 42 43 45 48 49 51 53 55 54 54 55 51 47 47 46 44 40 35 34 38 43 48 55 59 62 64 64 64 62 61 59 58 57 56 56 55 55 57 58 59 59 58 55 54 55 57 59 57 53 50 49 49 48 47 47 47 48 48 45 42 44 44 44
14 14 14 13 11 11 14 18 20 23 22 22 22 21 21 17 21 36 42 42 46 47 44 41 45 48 46 45 46 48 46 46 47 46 49 53 53 53 52 51 53 55 56 56 56 54 51 49 47 43 38 35 38 43 47 52 58 61 64 65 64 63 60 59 60 60 58 57 56 56 58 59 59 59 58 57 57 56 56 58 58 55 52 51 51 51 48 44 43 45 50 52 50 48 48 48 48
14 14 13 12 12 11 13 15 20 24 22 21 22 22 21 18 24 34 35 35 38 38 38 37 39 45 45 45 48 49 48 47 46 45 51 56 55 54 55 54 55 58 61 60 58 57 53 49 44 40 37 38 41 47 51 57 63 66 67 66 63 60 56 58 61 62 60 58 58 59 60 60 60 58 58 59 60 61 61 60 58 55 55 55 53 48 43 40 41 45 50 55 55 54 53 55 56
17 16 13 13 13 12 12 14 19 23 22 20 21 22 20 19 22 28 30 28 26 29 38 42 45 48 47 47 48 49 49 49 47 45 48 52 53 54 55 57 61 63 64 62 60 57 52 46 42 39 38 41 44 48 53 57 63 67 65 61 58 56 55 60 63 63 62 60 59 59 59 59 60 60 61 62 61 61 60 58 56 54 56 54 49 42 41 44 46 48 51 54 57 58 59 61 62
17 16 15 14 14 13 13 15 18 22 22 21 21 21 21 19 18 23 26 21 20 28 38 45 51 54 51 49 49 49 51 52 51 49 50 53 55 59 61 62 65 66 64 62 59 55 49 45 45 43 42 44 48 50 53 57 62 62 59 56 56 57 59 63 64 63 62 60 59 58 59 60 60 60 61 61 59 57 55 53 52 52 51 47 43 41 43 46 50 51 54 55 57 59 61 63 64
17 16 15 15 16 15 15 17 19 21 22 21 21 22 21 20 17 20 23 20 22 29 35 42 49 53 51 50 50 50 52 55 55 54 56 58 61 66 70 71 68 65 64 61 56 52 50 50 50 50 50 52 56 57 58 60 62 57 54 55 59 61 63 64 64 64 62 60 60 60 60 61 60 59 60 60 58 56 54 52 50 46 42 40 40 42 44 47 53 56 58 59 59 61 62 63 64
17 16 17 16 16 15 15 16 19 20 20 20 22 22 21 19 17 19 22 26 29 31 33 38 45 50 52 50 49 49 51 55 57 58 60 61 65 68 74 80 73 67 67 61 58 56 57 61 63 63 62 60 62 66 67 66 62 54 53 57 61 63 63 64 64 63 61 60 60 59 58 57 58 58 59 59 57 55 53 49 43 38 38 41 41 41 45 50 55 58 60 62 63 64 63 64 63
18 18 18 17 16 15 15 15 19 21 20 21 22 22 22 20 18 19 25 31 33 33 37 39 41 47 51 50 49 50 51 52 55 60 61 63 68 70 77 82 73 68 68 64 64 63 61 66 69 69 69 70 72 74 75 72 64 56 55 60 62 63 63 64 64 61 61 61 60 58 57 56 55 55 56 56 53 50 47 42 37 37 40 43 43 41 46 53 56 60 63 65 67 68 68 68 65
18 19 17 17 16 15 16 15 18 21 21 22 23 22 21 20 18 18 24 33 33 33 40 43 42 46 49 49 48 52 53 49 52 60 64 68 74 76 79 78 69 68 70 67 66 64 64 64 64 65 70 76 76 76 78 75 68 61 59 62 63 63 64 64 61 60 60 61 59 58 57 55 53 52 51 50 47 43 39 37 39 43 44 43 41 42 51 57 59 61 65 69 71 71 71 70 66
19 20 19 18 17 16 15 14 15 18 21 23 23 22 20 19 18 17 24 34 35 36 42 44 44 48 50 48 49 54 53 48 50 60 67 73 78 80 77 70 68 70 68 65 63 63 63 63 63 68 73 75 75 76 79 77 72 64 62 63 64 64 65 63 59 58 60 60 59 57 55 53 50 47 45 44 43 39 37 38 43 47 46 43 39 43 54 60 60 63 65 69 72 71 71 67 64
20 20 19 18 18 16 15 15 14 15 17 21 24 23 21 20 17 18 27 36 37 39 41 41 43 48 50 49 51 53 50 49 53 60 68 73 72 72 71 68 68 69 67 66 64 62 62 64 70 75 75 75 78 79 78 77 73 66 65 67 66 66 65 62 59 57 58 59 58 53 49 48 46 44 44 44 43 40 38 38 43 47 46 45 40 43 54 58 60 64 65 69 71 70 67 63 64
20 20 20 20 19 17 16 15 15 14 15 18 22 24 21 20 18 18 29 36 35 37 38 37 39 45 48 48 50 50 48 51 58 63 69 72 67 63 67 69 65 64 69 74 73 69 67 72 77 77 76 78 80 80 77 76 74 70 69 70 69 68 65 61 58 56 56 56 53 47 43 43 43 44 44 44 43 41 40 38 41 46 48 47 43 44 51 55 59 65 66 68 69 66 63 62 65
21 20 21 23 19 17 17 16 16 15 15 15 19 24 22 20 19 18 27 35 34 36 37 36 38 43 46 46 46 47 47 53 59 62 65 66 63 61 63 64 58 53 55 64 73 76 76 80 80 78 78 80 80 78 77 77 76 74 72 72 70 67 63 59 56 55 54 52 49 46 45 44 43 44 46 45 42 40 40 40 43 47 49 49 44 45 51 53 57 63 64 65 65 63 60 63 67
25 21 22 23 20 19 18 16 16 15 16 16 16 20 21 21 21 19 26 35 36 36 36 36 38 42 45 44 43 45 48 54 57 55 54 55 56 58 60 59 54 50 47 49 61 75 83 84 82 82 81 80 80 79 79 80 79 76 72 71 68 64 59 55 54 54 52 50 49 48 46 44 42 43 46 44 41 41 42 42 46 49 51 50 46 47 52 53 56 59 61 62 62 61 59 62 67
27 24 23 23 21 20 19 17 17 16 16 17 17 18 18 19 21 20 25 33 35 34 34 35 37 40 42 42 41 45 48 51 51 49 49 51 52 53 55 54 51 49 49 48 54 66 78 83 82 82 80 80 80 79 82 83 79 76 73 70 66 61 56 54 55 55 52 49 47 45 43 42 40 40 43 45 44 45 45 45 47 49 50 51 48 48 52 55 55 57 58 59 60 61 61 63 65
28 25 24 24 22 20 19 18 18 17 17 18 19 19 18 17 17 17 21 28 32 30 31 33 36 39 41 40 41 44 47 48 50 51 52 56 54 52 52 50 49 47 47 51 54 59 69 76 78 78 78 80 80 81 84 84 79 77 76 72 66 60 56 55 56 54 49 44 41 40 41 43 42 41 46 51 50 47 46 46 47 47 49 50 48 48 52 55 55 57 59 57 59 64 66 66 64
27 27 26 25 23 20 18 18 18 19 18 18 18 18 17 14 14 15 16 23 29 29 30 33 36 39 40 40 41 43 47 49 52 53 57 62 59 54 52 48 46 44 43 48 52 55 64 69 72 74 76 81 82 83 86 82 77 78 76 71 66 60 57 56 54 49 44 41 40 39 40 41 41 43 47 51 51 47 46 46 46 46 47 49 47 47 51 54 55 57 59 57 59 64 68 69 66
27 27 27 24 22 20 18 17 19 20 21 19 19 18 17 14 14 14 14 20 27 28 32 36 37 39 39 39 41 43 47 51 54 53 54 59 59 56 51 45 44 42 41 45 49 53 59 63 67 70 72 77 80 79 80 78 74 73 72 68 63 58 55 55 52 45 41 41 41 38 36 37 40 43 45 47 49 48 47 47 46 47 49 49 47 47 50 53 55 56 57 60 62 63 66 71 69
27 27 28 25 23 20 17 18 20 22 23 22 21 21 19 16 15 15 15 19 24 27 33 36 38 38 38 39 41 42 45 49 51 53 53 56 59 54 48 45 44 41 40 44 48 52 55 57 60 64 66 69 73 73 75 76 72 70 69 65 61 58 56 54 49 43 41 40 38 35 34 33 36 39 42 45 47 47 47 47 46 48 50 50 47 47 50 51 53 55 56 60 64 63 65 70 71
28 28 28 27 24 21 19 19 22 23 24 26 25 24 21 18 17 17 17 18 19 24 29 33 37 38 39 39 40 39 41 45 47 50 53 56 58 52 47 47 44 41 41 42 46 50 55 56 55 59 63 64 67 70 73 74 72 72 70 64 60 59 56 52 46 41 38 36 37 37 36 34 33 35 38 41 43 44 44 45 46 47 47 47 47 48 50 50 49 53 56 59 63 64 64 68 70
29 28 28 27 24 24 22 21 23 25 26 27 26 26 24 19 18 17 17 18 18 21 26 31 36 39 40 40 40 38 38 42 46 49 53 56 55 48 47 49 44 42 43 42 46 48 51 55 56 59 61 62 65 70 74 77 76 74 70 65 62 59 54 48 44 41 37 37 40 40 38 35 33 32 34 37 39 41 42 43 44 44 44 46 47 46 49 51 49 52 59 61 62 63 64 66 68
30 30 28 26 25 25 24 22 25 27 27 28 27 29 28 22 20 19 20 22 20 22 28 34 38 40 42 42 41 40 40 42 45 48 52 56 53 47 48 48 44 44 43 42 47 49 50 54 59 60 59 62 69 73 78 81 79 73 68 66 62 57 51 47 45 43 38 39 42 41 38 35 32 30 30 32 34 36 38 40 41 40 41 45 47 44 46 50 49 52 60 63 62 62 63 64 64
29 29 26 25 25 25 24 25 28 29 29 30 30 33 32 24 22 23 23 24 24 27 32 37 40 41 42 42 43 44 45 45 47 49 54 54 50 47 48 46 44 45 44 44 49 51 52 55 59 60 60 64 70 76 81 81 76 70 67 65 59 53 49 46 46 43 40 42 42 41 40 37 34 31 28 28 29 31 33 36 38 38 40 44 46 45 44 45 46 50 57 61 61 59 59 61 60
29 29 27 25 26 26 28 31 33 32 32 34 33 33 31 23 22 26 27 28 30 33 36 40 42 43 42 42 46 48 48 47 50 53 56 53 48 47 46 45 47 46 45 46 51 55 56 58 59 60 62 65 68 75 78 76 72 69 66 62 55 50 47 47 49 48 46 47 44 42 42 40 37 34 30 29 30 30 30 31 32 34 37 41 44 44 42 42 43 48 53 56 57 57 56 58 59
30 30 29 28 28 29 31 33 34 35 34 35 37 35 30 26 27 29 30 35 39 38 39 43 44 42 42 44 47 49 49 50 54 57 55 51 48 47 46 47 48 47 47 49 53 57 60 60 59 60 64 66 68 72 73 72 71 66 62 59 55 50 49 51 54 54 53 51 45 41 40 38 37 35 34 33 33 33 31 29 27 27 29 33 37 39 39 41 43 46 50 52 54 54 54 55 57
29 30 31 29 29 30 31 32 34 35 33 33 38 38 33 32 35 33 32 38 43 43 42 44 44 42 43 45 48 51 52 55 58 56 51 50 49 49 49 49 50 49 49 51 55 60 64 64 61 61 66 69 69 68 66 69 69 64 60 59 57 53 54 58 59 58 56 52 45 41 37 35 34 34 35 35 35 35 33 31 28 24 24 25 28 33 36 39 41 44 48 51 52 52 51 53 56
31 31 31 30 31 30 30 33 32 32 33 33 39 40 34 35 40 38 36 37 41 45 45 44 44 44 44 45 48 51 55 59 59 55 51 52 53 52 52 54 54 51 49 52 58 63 66 65 61 63 69 71 68 65 65 68 69 66 63 61 60 60 61 62 61 60 57 50 44 40 37 35 34 33 33 33 34 34 34 35 33 27 25 24 24 28 32 36 38 41 45 47 49 49 49 50 52
31 32 31 30 33 33 34 39 34 31 36 34 38 42 37 37 42 41 40 39 41 47 50 46 44 44 45 46 47 51 56 61 60 56 57 59 57 55 58 58 55 52 51 54 58 60 61 60 60 64 70 69 66 66 68 68 69 70 69 67 66 66 64 60 58 58 54 49 45 43 39 37 36 34 33 32 32 33 34 37 37 33 29 27 26 26 29 34 39 40 42 44 45 46 46 47 49
30 34 34 33 38 37 36 40 33 32 37 35 39 44 40 40 42 43 44 43 45 50 52 50 47 46 45 46 48 51 57 62 60 60 63 64 62 61 61 60 57 56 55 55 56 57 57 59 60 63 66 68 66 66 68 69 70 70 71 73 72 67 61 55 55 55 53 51 50 47 43 40 39 38 38 38 36 35 35 35 37 35 30 28 27 27 27 31 37 40 43 44 43 44 44 46 47
31 36 38 38 41 39 40 46 39 34 36 35 40 43 43 45 45 46 49 49 50 51 52 53 51 48 47 48 51 54 58 59 58 63 66 64 65 65 62 61 61 60 57 55 55 55 57 60 60 61 63 66 66 67 69 70 70 68 69 74 72 66 60 55 54 56 54 54 53 48 44 43 42 42 43 45 45 43 40 36 35 34 30 27 27 29 28 28 32 38 42 42 41 41 42 43 44
32 37 38 39 43 43 49 55 45 35 33 35 41 40 41 50 52 50 52 53 54 52 52 55 55 52 50 50 54 58 60 61 62 64 64 66 68 67 64 62 63 61 57 55 55 54 57 59 59 60 60 62 66 70 71 72 70 66 67 72 70 67 62 56 55 56 55 56 54 48 44 43 43 43 44 48 49 48 44 40 37 34 30 28 30 32 32 31 34 40 45 46 43 41 40 40 40
36 39 37 37 43 45 49 52 45 37 36 40 44 40 43 54 56 53 53 53 55 53 53 55 57 59 57 54 58 64 65 65 66 66 65 69 72 70 67 63 61 59 57 57 57 56 57 59 61 61 59 61 67 70 72 72 71 66 66 69 68 67 64 56 55 56 55 57 56 49 43 43 45 45 45 47 49 49 44 41 41 38 31 27 29 33 34 35 39 44 49 49 45 42 39 38 39
42 41 35 34 38 40 45 50 49 46 46 51 55 54 56 59 55 54 54 52 52 54 55 56 57 61 65 64 65 68 69 69 69 68 68 69 71 70 66 61 58 57 59 60 60 57 57 59 62 61 60 63 68 71 72 72 71 68 68 70 68 66 63 57 55 55 55 57 56 48 43 45 46 46 45 46 47 46 42 41 43 40 31 24 25 30 33 36 40 45 48 46 43 42 41 40 41
46 41 35 35 35 37 44 48 50 49 50 56 64 66 66 62 57 56 54 52 52 54 57 59 57 58 65 74 76 72 69 70 69 68 67 67 68 66 62 59 59 59 61 61 59 57 58 60 62 61 60 64 67 71 71 71 72 69 69 70 66 65 64 58 54 53 54 56 54 48 46 47 47 48 46 44 44 43 41 40 40 38 30 22 23 29 33 37 39 41 43 41 41 41 41 43 45
44 40 38 37 34 38 45 51 56 55 52 57 66 70 69 67 65 59 54 53 54 54 58 62 61 57 61 75 87 84 73 69 69 68 68 69 69 65 61 61 61 61 61 59 57 58 59 62 62 60 61 64 67 71 71 72 72 68 68 70 66 65 64 57 53 52 52 53 52 50 50 50 50 50 46 43 42 41 41 40 38 38 31 25 25 29 32 36 36 36 37 36 36 38 40 44 47
38 40 40 39 39 44 46 47 53 54 55 60 67 70 69 68 67 62 59 61 59 57 63 71 71 64 64 74 87 89 81 73 72 71 70 72 71 67 63 62 61 60 60 57 55 55 58 64 65 64 67 69 71 74 73 73 71 69 72 71 65 63 61 55 52 51 50 50 53 55 56 55 53 52 47 43 41 41 42 41 39 39 33 27 28 29 30 33 33 33 33 32 33 36 40 43 44
38 39 40 39 44 50 47 44 45 47 57 65 66 68 69 67 65 64 67 70 66 61 66 77 80 73 71 77 81 85 84 77 73 72 71 72 73 70 64 62 60 59 58 58 58 60 65 72 73 71 73 74 76 76 75 74 71 69 71 68 61 59 57 55 54 52 51 52 56 59 60 58 54 51 47 43 40 39 41 41 40 38 33 29 29 30 30 30 31 32 31 31 33 34 38 39 39
40 40 41 39 41 45 45 46 43 41 54 66 66 68 67 63 62 65 71 74 69 64 62 70 81 81 76 76 77 82 85 80 74 71 71 73 74 71 65 61 59 57 58 61 64 69 74 77 76 74 75 78 79 76 71 69 67 67 68 63 58 56 56 58 58 55 53 54 57 58 59 58 53 49 44 39 37 35 36 39 38 34 32 31 29 29 30 29 30 32 31 31 33 33 34 34 32
43 43 45 44 43 43 43 45 44 42 50 58 60 64 63 60 61 63 69 73 67 65 63 64 77 84 79 77 82 85 86 84 79 74 72 73 72 70 66 62 58 57 60 64 67 69 72 73 75 77 78 78 77 74 69 65 64 66 65 61 58 57 58 59 60 59 56 55 57 57 56 54 48 43 40 38 36 34 35 38 34 31 34 36 30 28 29 29 30 31 31 32 32 30 30 30 27